Tracking 25648 objects as of 16-May-2022
HD Live streaming from Space Station
objects crossing your sky now

STARLINK-3396

Track STARLINK-3396 now!
10-day predictions
STARLINK-3396 is classified as:


NORAD ID: 51129
Int'l Code: 2022-005AB
Perigee: 545.6 km
Apogee: 548.3 km
Inclination: 53.2 °
Period: 95.4 minutes
Semi major axis: 6917 km
RCS: Unknown
Launch date: January 19, 2022
Source: United States (US)
Launch site: AIR FORCE EASTERN TEST RANGE (AFETR)
aabbcc
Your satellite tracking list
Your tracking list is empty




NASA's NSSDC Master Catalog

Two Line Element Set (TLE):
1 51129U 22005AB  22136.25002315  .00041035  00000-0  25832-2 0  9994
2 51129  53.2209  74.5109 0001989  42.5484 213.1608 15.08814223 19499
Source of the keplerian elements: AFSPC